Regional Weather Roundup
Issued by NWS

Home | Current Version | Previous Version | Graphics & Text | Print | Product List | Glossary On
Versions: 1 2 3 4 5 6 7 8 9 10 11 12 13 14 15 16 17 18 19 20 21 22 23 24 25 26 27 28 29 30 31 32 33 34 35 36 37 38 39 40 41 42 43 44 45 46 47 48 49 50
000
ASUS43 KFSD 222210
RWRSD

WEATHER ROUNDUP FOR SOUTH DAKOTA
NATIONAL WEATHER SERVICE SIOUX FALLS SD
400 PM CST WED NOV 22 2017

NOTE: "FAIR" INDICATES FEW OR NO CLOUDS BELOW 12,000 FEET WITH NO
SIGNIFICANT WEATHER AND/OR OBSTRUCTIONS TO VISIBILITY.


SDZ001>005-009-010-012>017-222300-
NORTHWEST AND NORTH CENTRAL SOUTH DAKOTA

CITY           SKY/WX    TMP DP  RH WIND       PRES   REMARKS
BUFFALO          N/A     67  40  37 NW26G40   29.90R
FAITH            N/A     67  39  35 NW26G37   29.92R
MOBRIDGE       CLEAR     51  31  46 SE7       29.84R
$$

SDZ012>016-024>037-041>051-057-063-072>074-222300-
SOUTHWEST AND SOUTH CENTRAL SOUTH DAKOTA

CITY           SKY/WX    TMP DP  RH WIND       PRES   REMARKS
RAPID CTY ARPT SUNNY     68  36  30 NW18      30.00R
PIERRE         PTCLDY    59  34  39 W3        29.90R
CUSTER         CLOUDY    58  34  40 W14G21    30.12R
ELLSWORTH AFB  MOSUNNY   69  37  30 NW26G32   29.99R
PHILIP         SUNNY     68  40  35 W16G29    29.94R
PINE RIDGE     SUNNY     71  36  27 W17G25    30.02F
SPEARFISH      FAIR      63  39  42 W16G22    30.05R
WINNER         FAIR      68  38  33 NW18G26   29.94R
$$

SDZ004>011-016>023-039-040-222300-
NORTHEAST SOUTH DAKOTA

CITY           SKY/WX    TMP DP  RH WIND       PRES   REMARKS
ABERDEEN       CLEAR     37  22  54 S13       29.89F
WATERTOWN      CLEAR     34  19  54 S15G26    29.89F WCI  24
BROOKINGS      CLOUDY    34  18  52 S18G25    29.94F WCI  23
SISSETON         N/A     41  21  44 SW10      29.88R
$$

SDZ017-020-022-023-036>040-048>070-222300-
SOUTHEAST SOUTH DAKOTA

CITY           SKY/WX    TMP DP  RH WIND       PRES   REMARKS
SIOUX FALLS    MOCLDY    39  19  44 S18       30.01F
HURON          CLOUDY    41  22  46 S6        29.93S
CHAMBERLAIN    CLOUDY    56  34  43 CALM      29.94R
MITCHELL       CLOUDY    46  24  42 S14       29.95F
YANKTON        PTCLDY    45  22  40 S10       30.00F
$$

ABBREVIATIONS USED IN REMARKS
   TC - TEMPERATURE IN CELSIUS
  WCI - WIND CHILL INDEX
   HX - HEAT INDEX
  VSB - VISIBILITY





USA.gov is the U.S. government's official web portal to all federal, state and local government web resources and services.